Date String (YYYY-MM-DD hh:mm:ss) UTC,Instrument flags,absolute air pressure of the measurement (hPa),sample flow rate (lpm),inlet stack bypass flow (lpm),air temperature of the measurement (°C),ambient temperature measured by the external sensor (°C),aerosol sample conditioner tube jacket temperature (°C),OPC LED temperature (°C),internal box temperature (°C),relative humidity of the measurement (%),span deviation,mass concentration of particles derived from Lorenz-Mie calculation of OPC scattering (μg/m³),mass concentration of particles derived from Lorenz-Mie calculation of OPC scattering (μg/m³),mass concentration of particles derived from Lorenz-Mie calculation of OPC scattering (μg/m³)
DateTimeUTC,F1_M11,P_M11,Q1_M11,Q2_M11,T1_M11,T2_M11,T3_M11,T4_M11,T5_M11,U1_M11,ZSPAN_M11,X0_M11,X2_M11,X1_M11
2023-09-09 06:00:00,SystemResetWarning,0835.3,5.00,000.00,028.0,025.6,000.0,036.5,029.4,10.0,0000.0,0007.97,0001.35,0000.76
2023-09-09 06:01:00,SystemResetWarning,0835.3,5.00,000.00,028.0,025.9,000.0,036.5,029.5,10.0,0000.0,0007.89,0001.35,0000.75
2023-09-09 06:02:00,SystemResetWarning,0835.2,5.00,000.00,028.1,026.2,000.0,036.5,029.6,10.1,0000.0,0007.78,0001.32,0000.74
2023-09-09 06:03:00,SystemResetWarning,0835.3,5.00,000.00,028.1,026.4,000.0,036.5,029.6,10.0,0000.0,0007.48,0001.27,0000.73
2023-09-09 06:04:00,SystemResetWarning,0835.3,5.00,000.00,028.1,026.6,000.0,036.5,029.6,10.0,0000.0,0007.32,0001.24,0000.72
2023-09-09 06:05:00,SystemResetWarning,0835.3,5.01,000.00,028.1,026.8,000.0,036.5,029.7,10.0,0000.0,0005.79,0001.27,0000.71
2023-09-09 06:06:00,SystemResetWarning,0835.3,4.99,000.00,028.2,026.9,000.0,036.5,029.8,10.0,0000.0,0005.34,0001.28,0000.72
2023-09-09 06:07:00,SystemResetWarning,0835.3,4.99,000.00,028.2,027.0,000.0,036.5,029.8,10.0,0000.0,0005.26,0001.27,0000.72
2023-09-09 06:08:00,SystemResetWarning,0835.2,4.99,000.00,028.2,027.1,000.0,036.6,029.8,9.9,0000.0,0004.89,0001.24,0000.70
2023-09-09 06:09:00,SystemResetWarning,0835.3,5.01,000.00,028.3,027.2,000.0,036.6,029.9,10.0,0000.0,0004.89,0001.28,0000.71
2023-09-09 06:10:00,SystemResetWarning,0835.2,5.01,000.00,028.3,027.3,000.0,036.6,029.9,10.0,0000.0,0003.88,0001.21,0000.70
2023-09-09 06:11:00,SystemResetWarning,0835.2,5.00,000.00,028.3,027.3,000.0,036.6,030.0,10.0,0000.0,0003.14,0001.17,0000.70
2023-09-09 06:12:00,SystemResetWarning,0835.2,4.99,000.00,028.4,027.3,000.0,036.7,030.0,9.9,0000.0,0003.08,0001.17,0000.70
2023-09-09 06:13:00,SystemResetWarning,0835.3,4.98,000.00,028.4,026.0,000.0,036.6,029.8,10.0,0000.0,0003.63,0001.20,0000.70
2023-09-09 06:14:00,SystemResetWarning,0835.3,5.01,000.00,028.3,024.8,000.0,036.5,029.7,10.0,0000.0,0004.70,0001.19,0000.69
2023-09-09 06:15:00,SystemResetWarning,0835.3,5.01,000.00,028.2,024.7,000.0,036.5,029.6,10.0,0000.0,0005.13,0001.20,0000.68
2023-09-09 06:16:00,SystemResetWarning,0835.3,4.99,000.00,028.1,024.9,000.0,036.5,029.4,10.1,0000.0,0004.97,0001.16,0000.68
2023-09-09 06:17:00,SystemResetWarning,0835.3,5.00,000.00,028.1,025.3,000.0,036.5,029.4,10.1,0000.0,0005.21,0001.20,0000.68
2023-09-09 06:18:00,SystemResetWarning,0835.3,5.01,000.00,028.1,025.6,000.0,036.5,029.5,10.2,0000.0,0004.92,0001.19,0000.67
2023-09-09 06:19:00,SystemResetWarning,0835.3,4.99,000.00,028.1,025.9,000.0,036.5,029.5,10.1,0000.0,0005.25,0001.21,0000.66
2023-09-09 06:20:00,SystemResetWarning,0835.3,4.99,000.00,028.1,026.2,000.0,036.5,029.6,10.1,0000.0,0005.82,0001.22,0000.66
2023-09-09 06:21:00,SystemResetWarning,0835.3,5.01,000.00,028.1,026.4,000.0,036.5,029.6,10.1,0000.0,0006.03,0001.28,0000.66
2023-09-09 06:22:00,SystemResetWarning,0835.3,5.00,000.00,028.1,026.6,000.0,036.5,029.7,10.1,0000.0,0006.04,0001.29,0000.65
2023-09-09 06:23:00,SystemResetWarning,0835.3,5.00,000.00,028.1,026.7,000.0,036.5,029.7,10.1,0000.0,0006.32,0001.34,0000.65
2023-09-09 06:24:00,SystemResetWarning,0835.3,5.00,000.00,028.2,026.9,000.0,036.5,029.8,10.1,0000.0,0006.67,0001.29,0000.65
2023-09-09 06:25:00,SystemResetWarning,0835.3,5.00,000.00,028.2,027.0,000.0,036.6,029.8,10.1,0000.0,0006.46,0001.33,0000.65
2023-09-09 06:26:00,SystemResetWarning,0835.3,5.00,000.00,028.2,027.1,000.0,036.6,029.9,10.1,0000.0,0007.42,0001.42,0000.66
2023-09-09 06:27:00,SystemResetWarning,0835.2,5.00,000.00,028.3,027.2,000.0,036.6,029.9,10.1,0000.0,0007.48,0001.44,0000.67
2023-09-09 06:28:00,SystemResetWarning,0835.3,5.00,000.00,028.3,027.2,000.0,036.6,029.9,10.1,0000.0,0007.24,0001.40,0000.67
2023-09-09 06:29:00,SystemResetWarning,0835.2,5.00,000.00,028.3,027.3,000.0,036.7,030.0,10.1,0000.0,0007.00,0001.38,0000.67
2023-09-09 06:30:00,SystemResetWarning,0835.2,5.00,000.00,028.4,027.4,000.0,036.7,030.0,10.1,0000.0,0006.77,0001.39,0000.67
2023-09-09 06:31:00,SystemResetWarning,0835.3,5.00,000.00,028.4,027.4,000.0,036.7,030.1,10.1,0000.0,0006.18,0001.36,0000.66
2023-09-09 06:32:00,SystemResetWarning,0835.2,4.98,000.00,028.4,026.4,000.0,036.7,029.9,10.1,0000.0,0006.03,0001.30,0000.65
2023-09-09 06:33:00,SystemResetWarning,0835.3,5.01,000.00,028.4,024.9,000.0,036.6,029.7,10.1,0000.0,0005.96,0001.30,0000.65
2023-09-09 06:34:00,SystemResetWarning,0835.3,5.00,000.00,028.3,024.7,000.0,036.5,029.6,10.1,0000.0,0006.98,0001.25,0000.64
2023-09-09 06:35:00,SystemResetWarning,0835.2,4.99,000.00,028.2,024.9,000.0,036.5,029.4,10.2,0000.0,0006.77,0001.27,0000.64
2023-09-09 06:36:00,SystemResetWarning,0835.2,5.00,000.00,028.1,025.2,000.0,036.5,029.4,10.2,0000.0,0006.21,0001.31,0000.65
2023-09-09 06:37:00,SystemResetWarning,0835.3,5.00,000.00,028.1,025.6,000.0,036.5,029.5,10.2,0000.0,0004.57,0001.22,0000.63
2023-09-09 06:38:00,SystemResetWarning,0835.3,5.01,000.00,028.1,025.9,000.0,036.5,029.5,10.2,0000.0,0004.53,0001.21,0000.62
2023-09-09 06:39:00,SystemResetWarning,0835.3,4.99,000.00,028.1,026.1,000.0,036.6,029.6,10.3,0000.0,0004.49,0001.19,0000.61
2023-09-09 06:40:00,SystemResetWarning,0835.3,5.00,000.00,028.1,026.4,000.0,036.6,029.6,10.3,0000.0,0004.53,0001.18,0000.59
2023-09-09 06:41:00,SystemResetWarning,0835.3,5.00,000.00,028.2,026.5,000.0,036.6,029.7,10.3,0000.0,0004.49,0001.15,0000.59
2023-09-09 06:42:00,SystemResetWarning,0835.3,5.01,000.00,028.2,026.7,000.0,036.6,029.8,10.2,0000.0,0004.28,0001.14,0000.59
2023-09-09 06:43:00,SystemResetWarning,0835.3,5.00,000.00,028.2,026.8,000.0,036.6,029.8,10.2,0000.0,0004.27,0001.15,0000.58
2023-09-09 06:44:00,SystemResetWarning,0835.3,5.00,000.00,028.2,027.0,000.0,036.6,029.8,10.2,0000.0,0004.21,0001.11,0000.59
2023-09-09 06:45:00,SystemResetWarning,0835.3,5.00,000.00,028.3,027.1,000.0,036.6,029.9,10.2,0000.0,0004.76,0001.11,0000.59
2023-09-09 06:46:00,SystemResetWarning,0835.3,4.99,000.00,028.3,027.1,000.0,036.6,029.9,10.2,0000.0,0004.09,0001.07,0000.59
2023-09-09 06:47:00,SystemResetWarning,0835.3,4.99,000.00,028.3,027.2,000.0,036.7,030.0,10.2,0000.0,0003.93,0001.02,0000.59
2023-09-09 06:48:00,SystemResetWarning,0835.3,5.00,000.00,028.4,027.3,000.0,036.7,030.0,10.4,0000.0,0003.96,0001.03,0000.60
2023-09-09 06:49:00,SystemResetWarning,0835.3,5.00,000.00,028.4,027.3,000.0,036.7,030.0,10.4,0000.0,0003.92,0001.04,0000.61
2023-09-09 06:50:00,SystemResetWarning,0835.3,5.00,000.00,028.4,027.2,000.0,036.7,030.1,10.5,0000.0,0003.99,0001.04,0000.61
2023-09-09 06:51:00,SystemResetWarning,0835.2,5.01,000.00,028.4,025.7,000.0,036.7,029.8,10.4,0000.0,0003.92,0001.06,0000.63
2023-09-09 06:52:00,SystemResetWarning,0835.2,5.01,000.00,028.4,024.7,000.0,036.6,029.7,10.4,0000.0,0004.72,0001.07,0000.64
2023-09-09 06:53:00,SystemResetWarning,0835.1,5.01,000.00,028.3,024.7,000.0,036.5,029.6,10.5,0000.0,0004.94,0001.10,0000.65
2023-09-09 06:54:00,SystemResetWarning,0835.2,4.99,000.00,028.2,025.0,000.0,036.6,029.5,10.6,0000.0,0004.96,0001.10,0000.65
2023-09-09 06:55:00,SystemResetWarning,0835.1,5.00,000.00,028.2,025.3,000.0,036.6,029.5,10.7,0000.0,0004.93,0001.11,0000.65
2023-09-09 06:56:00,SystemResetWarning,0835.1,5.01,000.00,028.1,025.7,000.0,036.6,029.5,10.7,0000.0,0003.32,0001.09,0000.66
2023-09-09 06:57:00,SystemResetWarning,0835.1,5.00,000.00,028.1,026.0,000.0,036.6,029.6,10.7,0000.0,0003.34,0001.12,0000.66
2023-09-09 06:58:00,SystemResetWarning,0835.1,5.00,000.00,028.1,026.2,000.0,036.6,029.6,10.6,0000.0,0003.81,0001.14,0000.67
2023-09-09 06:59:00,SystemResetWarning,0835.2,5.00,000.00,028.2,026.4,000.0,036.6,029.7,10.7,0000.0,0004.42,0001.10,0000.66
